Weather History for Montpelier, VT

Change the Weather History Date:

Thursday, September 15, 2011

  Actual Average Record
Temperature  
Mean Temperature 51 °F 58 °F  
Max Temperature 58 °F 69 °F 83 °F (1993)
Min Temperature 44 °F 47 °F 30 °F (1963)
Degree Days  
Heating Degree Days 14 8  
Month to date heating degree days 45 85  
Since 1 July heating degree days 80 193  
Cooling Degree Days 0 1  
Month to date cooling degree days 24 15  
Year to date cooling degree days 299 259  
Growing Degree Days 2 (Base 50)    
Moisture  
Dew Point 51 °F    
Average Humidity 92    
Maximum Humidity 100    
Minimum Humidity 83    
Precipitation  
Precipitation 0.37 in 0.10 in 2.18 in (1998)
Month to date precipitation 2.43 1.40  
Year to date precipitation 43.63 26.20  
Sea Level Pressure  
Sea Level Pressure 29.99 in    
Wind  
Wind Speed 4 mph (NW)    
Max Wind Speed 14 mph    
Max Gust Speed 21 mph    
Visibility 8 miles    
Events Rain    
T = Trace of Precipitation, MM = Missing Value Source: NWS Daily Summary

Daily Weather History Graph

Daily Weather History Graph

Search for Another Location

Airport:

Trip Planner

Search our weather history database for the weather conditions in past years. The results will help you decide how hot, cold, wet, or windy it might be!

Date:

Astronomy

Sep. 15, 2011 Rise Set
Actual Time 6:28 AM EDT 7:01 PM EDT
Civil Twilight 5:59 AM EDT 7:30 PM EDT
Nautical Twilight 5:25 AM EDT 8:04 PM EDT
Astronomical Twilight 4:49 AM EDT 8:40 PM EDT
Moon 8:04 PM EDT (9/15) 9:44 AM EDT (9/15)
Length of Visible Light 13h 30m
Length of Day
12h 32m
Waning Gibbous, 91% of the Moon is Illuminated
Sep 15
Waning Gibbous
Sep 20
Last Quarter
Sep 27
New
Oct 3
First Quarter
Oct 11
Full

Hourly Weather History & Observations

Time (EDT) Temp. Windchill Dew Point Humidity Pressure Visibility Wind Dir Wind Speed Gust Speed Precip Events Conditions
12:51 AM 57.0 °F - 55.0 °F 93% 29.99 in 7.0 mi Calm Calm - N/A   Mostly Cloudy
1:51 AM 57.0 °F - 55.9 °F 96% 29.98 in 5.0 mi Calm Calm - N/A   Mostly Cloudy
2:51 AM 57.0 °F - 55.0 °F 93% 29.97 in 7.0 mi Calm Calm - N/A   Overcast
3:51 AM 57.9 °F - 55.0 °F 90% 29.96 in 10.0 mi Calm Calm - N/A   Overcast
4:51 AM 57.0 °F - 55.9 °F 96% 29.95 in 4.0 mi Calm Calm - N/A   Overcast
5:22 AM 57.2 °F - 55.4 °F 94% 29.95 in 5.0 mi Calm Calm - N/A   Overcast
5:31 AM 57.2 °F - 55.4 °F 94% 29.95 in 4.0 mi NNW 3.5 mph - N/A   Overcast
5:51 AM 55.9 °F - 55.9 °F 100% 29.94 in 4.0 mi Calm Calm - N/A   Overcast
6:06 AM 55.4 °F - 55.4 °F 100% 29.94 in 5.0 mi NW 3.5 mph - N/A   Overcast
6:51 AM 57.2 °F - 55.4 °F 94% 29.96 in 7.0 mi Calm Calm - N/A   Overcast
7:51 AM 55.9 °F - 51.1 °F 84% 29.99 in 10.0 mi NW 8.1 mph - 0.00 in Rain Light Rain
8:51 AM 54.0 °F - 52.0 °F 93% 29.99 in 4.0 mi Calm Calm - 0.04 in Rain Rain
9:05 AM 53.6 °F - 51.8 °F 94% 29.99 in 10.0 mi NNW 4.6 mph - 0.00 in Rain Light Rain
9:14 AM 53.6 °F - 51.8 °F 94% 29.98 in 7.0 mi NNW 6.9 mph - 0.01 in Rain Rain
9:29 AM 53.6 °F - 51.8 °F 94% 29.99 in 10.0 mi NW 4.6 mph - 0.01 in Rain Light Rain
9:51 AM 53.1 °F - 52.0 °F 96% 29.99 in 10.0 mi Calm Calm - 0.01 in   Overcast
9:59 AM 53.6 °F - 51.8 °F 94% 29.99 in 10.0 mi NW 3.5 mph - 0.00 in Rain Light Rain
10:47 AM 53.6 °F - 51.8 °F 94% 29.98 in 5.0 mi NW 4.6 mph - 0.08 in Rain Light Rain
10:51 AM 53.1 °F - 52.0 °F 96% 29.99 in 5.0 mi NW 4.6 mph - 0.08 in Rain Rain
11:05 AM 53.6 °F - 53.6 °F 100% 29.99 in 6.0 mi WNW 5.8 mph - 0.02 in Rain Light Rain
11:27 AM 53.6 °F - 51.8 °F 94% 29.98 in 7.0 mi NNW 4.6 mph - 0.04 in Rain Light Rain
11:51 AM 54.0 °F - 52.0 °F 93% 29.98 in 9.0 mi NNW 5.8 mph - 0.06 in Rain Light Rain
11:58 AM 53.6 °F - 51.8 °F 94% 29.97 in 8.0 mi NNW 6.9 mph - 0.00 in Rain Light Rain
12:32 PM 53.6 °F - 51.8 °F 94% 29.98 in 9.0 mi NW 4.6 mph - 0.02 in Rain Light Rain
12:42 PM 53.6 °F - 51.8 °F 94% 29.98 in 10.0 mi WNW 5.8 mph - N/A Rain Light Rain
12:51 PM 52.0 °F - 51.1 °F 97% 30.00 in 10.0 mi Variable 4.6 mph - 0.04 in Rain Light Rain
1:25 PM 51.8 °F - 51.8 °F 100% 29.97 in 7.0 mi NW 4.6 mph - 0.05 in Rain Light Rain
1:51 PM 52.0 °F - 51.1 °F 97% 29.98 in 8.0 mi Variable 5.8 mph - 0.07 in Rain Light Rain
2:37 PM 51.8 °F - 51.8 °F 100% 29.96 in 7.0 mi NW 5.8 mph - 0.04 in Rain Light Rain
2:51 PM 52.0 °F - 51.1 °F 97% 29.96 in 9.0 mi NNW 5.8 mph - 0.06 in Rain Light Rain
3:30 PM 51.8 °F - 50.0 °F 94% 29.96 in 10.0 mi WNW 9.2 mph - 0.00 in Rain Light Rain
3:51 PM 51.1 °F - 48.9 °F 92% 29.97 in 10.0 mi WNW 12.7 mph - 0.00 in Rain Light Rain
4:19 PM 50.0 °F - 48.2 °F 94% 29.98 in 10.0 mi NW 10.4 mph - 0.01 in Rain Light Rain
4:37 PM 48.2 °F - 48.2 °F 100% 29.98 in 10.0 mi NW 10.4 mph 17.3 mph 0.01 in   Overcast
4:51 PM 48.9 °F - 46.9 °F 93% 30.00 in 10.0 mi NNW 8.1 mph 17.3 mph 0.01 in Rain Light Rain
5:06 PM 48.2 °F - 46.4 °F 93% 29.99 in 10.0 mi NW 10.4 mph - 0.00 in Rain Light Rain
5:51 PM 48.0 °F - 46.0 °F 93% 30.02 in 10.0 mi WNW 6.9 mph - 0.00 in   Overcast
6:51 PM 48.0 °F - 46.0 °F 93% 30.03 in 10.0 mi NW 8.1 mph - N/A   Overcast
7:51 PM 48.0 °F - 46.0 °F 93% 30.05 in 10.0 mi WNW 4.6 mph - 0.00 in   Overcast
8:51 PM 48.0 °F - 46.0 °F 93% 30.06 in 10.0 mi Calm Calm - N/A   Overcast
9:51 PM 46.0 °F - 45.0 °F 96% 30.08 in 10.0 mi Calm Calm - N/A   Mostly Cloudy
10:51 PM 46.9 °F - 42.1 °F 83% 30.09 in 10.0 mi WNW 5.8 mph - N/A   Partly Cloudy
11:51 PM 44.1 °F 42.5 °F 39.9 °F 85% 30.09 in 10.0 mi NW 3.5 mph - N/A   Clear